Location: ?
(35.2180°N, 139.6392°E)
Time: 06:34:38
(UTC+00:00)

Meteor 2-10 Rocket - Pass Details

Date: 05 August 2024
Orbit: 733 x 882 km, 81.2° (Epoch: 12 September)

Event Time Altitude Azimuth Distance (km) Brightness Sun altitude
Exits shadow 17:50:21 19° 159° (SSE) 1,789 5.2 -22.4°
Maximum altitude 17:53:50 46° 94° (E) 1,010 4.4 -21.8°
Drops below altitude 10° 17:58:39 10° 22° (NNE) 2,260 6.8 -21.1°
Sets 18:01:02 0° 16° (NNE) 3,177 7.6 -20.7°
